Find Starlink 32004

NORAD ID: 60151 Int'l Des: 2024-120 Owner: SPXS Country: US Constellation: starlink operational
LEOCIRCULAR

当前视图

正在加载3D地球...

About Starlink 32004

Starlink 32004 (NORAD 60151) is a starlink constellation satellite (v2 mini) launched Jun 27, 2024 by SPXS of US. It operates in LEO, CIRCULAR orbit with a mass of 730.00 kg.

即将过境

Passes for default location (London). Set your location on the main map for personalized predictions.

高度历史

Loading altitude history...

两行轨道根数

1 60151U 24120S 26255.20386338 .00000578 00000-0 28226-4 0 9999
2 60151 53.1598 170.6570 0001243 93.0323 267.0822 15.34401070125057
Epoch: Sep 12, 2026 • Age: 15 hours

当前状态

高度 468.2 km
远地点 / 近地点 N/A
速度 7.63 km/s
星下点 -19.02°S, 73.1°E
发射日期 Jun 27, 2024
运行时间 2.2 years
类型 internet

技术详情

分类 Payload
质量 730.00 kg
干质量 700.00 kg
总质量 730.00 kg
长度 0.30 m
直径 4.10 m
跨度 29.00 m
形状 Box + pan
制造商 SPXS
平台类型 Starlink V2M
阶段状态 In Orbit
所有者/国家 SPXS/US

Most Searched